FW7748 Weather Reports


time (UTC)temp
F
wind
direction
speed
knots
gust
knots
rain 1hr
in
rain 24hr
in
rain mn
in
humidity
%
barometer
mb
20260504141050 58 5 2.6 11.3 0.00 0.00 0.00 47 1013.6
20260504140550 58 5 0.9 10.4 0.00 0.00 0.00 50 1013.7
20260504130510 55 5 0.9 7.8 0.00 0.00 0.00 54 1014.1
20260504110534 36 5 0.0 0.0 0.00 0.00 0.00 73 1014.2
20260504100547 34 5 0.0 0.0 0.00 0.00 0.00 73 1014.1
20260504081534 36 5 0.0 0.9 0.00 0.00 0.00 72 1014.4
20260504081028 36 5 0.0 0.9 0.00 0.00 0.00 72 1014.3
20260504080527 36 5 0.0 0.9 0.00 0.00 0.00 72 1014.3
20260504050559 40 5 0.0 0.0 0.00 0.00 0.00 69 1014.1
20260504050104 41 5 0.0 0.0 0.00 0.00 0.00 69 1014.1
20260504045552 41 5 0.0 0.0 0.00 0.00 0.00 69 1014.1
20260504045052 41 5 0.0 0.0 0.00 0.00 0.00 69 1014.0
20260504044546 41 5 0.0 0.9 0.00 0.00 0.00 69 1014.0
20260504044046 40 5 0.0 1.7 0.00 0.00 0.00 69 1014.0
20260504043536 41 5 0.0 0.0 0.00 0.00 0.00 69 1014.0
20260504043035 41 5 0.0 0.0 0.00 0.00 0.00 69 1014.1
20260504042524 41 5 0.0 0.0 0.00 0.00 0.00 69 1014.0
20260504042131 41 5 0.0 0.0 0.00 0.00 0.00 69 1013.9
20260504041607 42 5 0.0 0.0 0.00 0.00 0.00 68 1014.0
20260504041048 42 5 0.0 0.0 0.00 0.00 0.00 68 1013.9
20260504040550 43 5 0.0 0.0 0.00 0.00 0.00 68 1013.8
20260504040046 43 5 0.0 0.0 0.00 0.00 0.00 67 1013.8
20260504035533 43 5 0.0 0.0 0.00 0.00 0.00 67 1013.7
20260504035034 44 5 0.0 0.0 0.00 0.00 0.00 66 1013.5
20260504034524 43 5 0.0 0.0 0.00 0.00 0.00 66 1013.5
20260504034028 44 5 0.0 0.0 0.00 0.00 0.00 66 1013.5
20260504033518 44 5 0.0 0.0 0.00 0.00 0.00 66 1013.5
20260504033018 43 5 0.0 0.0 0.00 0.00 0.00 67 1013.4
20260504032511 43 5 0.0 0.0 0.00 0.00 0.00 66 1013.4
20260504032010 44 5 0.0 0.0 0.00 0.00 0.00 66 1013.4
20260504031600 44 5 0.0 0.0 0.00 0.00 0.00 66 1013.4
20260504031052 44 5 0.0 0.0 0.00 0.00 0.00 66 1013.3
20260504030555 44 5 0.0 0.0 0.00 0.00 0.00 66 1013.3
20260504030048 44 5 0.0 0.0 0.00 0.00 0.00 65 1013.3
20260504025548 44 5 0.0 0.0 0.00 0.00 0.00 65 1013.3
20260504025038 45 5 0.0 0.0 0.00 0.00 0.00 65 1013.3
20260504024545 45 5 0.0 0.0 0.00 0.00 0.00 65 1013.2
20260504024034 45 5 0.0 0.0 0.00 0.00 0.00 64 1013.3
20260504023532 45 5 0.0 0.0 0.00 0.00 0.00 64 1013.2
20260504023022 45 5 0.0 0.0 0.00 0.00 0.00 65 1013.3
20260504022523 45 5 0.0 0.0 0.00 0.00 0.00 64 1013.3
20260504022014 45 5 0.0 0.0 0.00 0.00 0.00 64 1013.3
20260504021512 45 5 0.0 0.0 0.00 0.00 0.00 64 1013.3
20260504021056 45 5 0.0 0.0 0.00 0.00 0.00 63 1013.3
20260504020558 45 5 0.0 0.0 0.00 0.00 0.00 63 1013.3
20260504020110 45 5 0.0 0.0 0.00 0.00 0.00 64 1013.2
20260504015552 45 5 0.0 0.0 0.00 0.00 0.00 63 1013.2
20260504015044 45 5 0.0 0.0 0.00 0.00 0.00 63 1013.2
20260504014543 46 5 0.0 0.0 0.00 0.00 0.00 63 1013.2
20260504014034 46 5 0.0 0.0 0.00 0.00 0.00 63 1013.2
20260504013540 46 5 0.0 0.0 0.00 0.00 0.00 62 1013.1
20260504013035 46 5 0.0 0.0 0.00 0.00 0.00 62 1013.2
20260504012538 47 5 0.0 0.0 0.00 0.00 0.00 61 1013.1
20260504012029 47 5 0.0 0.0 0.00 0.00 0.00 61 1013.1
20260504011529 47 5 0.0 0.0 0.00 0.00 0.00 60 1013.0
20260504011022 48 5 0.0 0.0 0.00 0.00 0.00 60 1013.0
20260504010520 48 5 0.0 0.0 0.00 0.00 0.00 60 1012.9
20260504010012 48 5 0.0 0.0 0.00 0.00 0.00 58 1012.9
20260504005512 49 5 0.0 0.0 0.00 0.00 0.00 58 1012.8
20260504005002 49 5 0.0 0.0 0.00 0.00 0.00 57 1012.8
20260504004505 49 5 0.0 0.0 0.00 0.00 0.00 56 1012.8
20260504004054 50 5 0.0 0.0 0.00 0.00 0.00 56 1012.6
20260504003554 50 5 0.0 0.0 0.00 0.00 0.00 55 1012.6
20260504003046 50 5 0.0 0.0 0.00 0.00 0.00 54 1012.5
20260504002544 51 5 0.0 0.0 0.00 0.00 0.00 53 1012.4
20260504002040 51 5 0.0 0.0 0.00 0.00 0.00 52 1012.4
20260504001543 52 5 0.0 0.0 0.00 0.00 0.00 53 1012.3
20260504001031 52 5 0.0 0.9 0.00 0.00 0.00 50 1012.2
20260504000528 53 5 0.0 4.3 0.00 0.00 0.00 48 1012.3
20260504000021 53 5 0.0 0.9 0.00 0.00 0.00 48 1012.2
20260503235518 54 5 0.0 0.0 0.00 0.00 0.00 48 1012.2
20260503235015 55 5 0.0 0.0 0.00 0.00 0.00 47 1012.1
20260503234512 55 5 0.0 0.9 0.00 0.00 0.00 46 1012.1
20260503234003 56 5 0.0 2.6 0.00 0.00 0.00 44 1012.1
20260503233506 56 5 0.0 2.6 0.00 0.00 0.00 41 1012.0
20260503233100 57 5 0.0 6.1 0.00 0.00 0.00 41 1011.8
20260503232558 57 5 0.0 6.1 0.00 0.00 0.00 39 1011.8
20260503232050 57 5 0.9 5.2 0.00 0.00 0.00 39 1011.8
20260503231550 57 5 1.7 5.2 0.00 0.00 0.00 40 1011.8
20260503231041 57 5 0.0 5.2 0.00 0.00 0.00 40 1011.8
20260503230544 58 5 0.9 7.0 0.00 0.00 0.00 39 1011.7
20260503230040 58 5 0.9 7.0 0.00 0.00 0.00 39 1011.7
20260503225536 58 5 1.7 6.1 0.00 0.00 0.00 38 1011.7
20260503225033 58 5 1.7 6.1 0.00 0.00 0.00 38 1011.7
20260503224532 59 5 1.7 6.1 0.00 0.00 0.00 38 1011.7
20260503224026 59 5 0.9 7.0 0.00 0.00 0.00 37 1011.6
20260503223524 59 5 1.7 7.8 0.00 0.00 0.00 37 1011.5
20260503223023 59 5 1.7 9.6 0.00 0.00 0.00 37 1011.5
20260503222522 59 5 2.6 9.6 0.00 0.00 0.00 36 1011.6
20260503222014 58 5 2.6 7.0 0.00 0.00 0.00 36 1011.6
20260503221512 59 5 0.9 7.8 0.00 0.00 0.00 37 1011.7
20260503221012 59 5 2.6 7.8 0.00 0.00 0.00 35 1011.5
20260503220510 59 5 2.6 8.7 0.00 0.00 0.00 36 1011.5
20260503215600 58 5 0.9 7.8 0.00 0.00 0.00 37 1011.6
20260503215058 59 5 1.7 7.8 0.00 0.00 0.00 37 1011.7
20260503214600 59 5 2.6 8.7 0.00 0.00 0.00 37 1011.5
20260503214058 58 5 2.6 8.7 0.00 0.00 0.00 37 1011.4
20260503213556 58 5 3.5 7.8 0.00 0.00 0.00 37 1011.4
20260503213052 59 5 3.5 7.8 0.00 0.00 0.00 36 1011.4
20260503212552 60 5 1.7 7.0 0.00 0.00 0.00 35 1011.4
20260503212046 60 5 1.7 6.1 0.00 0.00 0.00 35 1011.3
20260503211549 59 5 2.6 7.0 0.00 0.00 0.00 35 1011.3
20260503211036 59 5 2.6 10.4 0.00 0.00 0.00 35 1011.3
20260503210537 59 5 3.5 10.4 0.00 0.00 0.00 35 1011.3
20260503210032 60 5 3.5 11.3 0.00 0.00 0.00 36 1011.3
20260503205538 59 5 3.5 11.3 0.00 0.00 0.00 35 1011.2
20260503205029 59 5 3.5 7.8 0.00 0.00 0.00 36 1011.3
20260503204532 59 5 3.5 7.0 0.00 0.00 0.00 34 1011.4
20260503204020 59 5 1.7 7.8 0.00 0.00 0.00 38 1011.4
20260503203526 58 5 2.6 9.6 0.00 0.00 0.00 36 1011.4
20260503203015 59 5 4.3 11.3 0.00 0.00 0.00 36 1011.4
20260503202519 58 5 4.3 11.3 0.00 0.00 0.00 35 1011.5
20260503202013 58 5 0.9 11.3 0.00 0.00 0.00 36 1011.7
20260503201510 57 5 2.6 11.3 0.00 0.00 0.00 37 1011.8
20260503201100 58 5 3.5 9.6 0.00 0.00 0.00 35 1011.8
20260503200554 58 5 2.6 8.7 0.00 0.00 0.00 38 1011.7
20260503200501 58 5 2.6 8.7 0.00 0.00 0.00 37 1011.7
20260503200056 58 5 3.5 8.7 0.00 0.00 0.00 36 1011.8
20260503195548 57 5 2.6 7.0 0.00 0.00 0.00 35 1011.9
20260503195047 57 5 2.6 13.9 0.00 0.00 0.00 35 1012.0
20260503194541 57 5 4.3 13.9 0.00 0.00 0.00 37 1011.9
20260503194036 57 5 6.1 11.3 0.00 0.00 0.00 36 1012.1
20260503193529 57 5 3.5 13.0 0.00 0.00 0.00 35 1012.2
20260503193042 58 5 4.3 13.0 0.00 0.00 0.00 37 1012.3
20260503192520 57 5 2.6 9.6 0.00 0.00 0.00 40 1012.2
20260503192020 57 5 3.5 9.6 0.00 0.00 0.00 37 1012.3
20260503191524 57 5 3.5 13.0 0.00 0.00 0.00 39 1012.3
20260503191010 57 5 5.2 13.0 0.00 0.00 0.00 38 1012.3
20260503190503 57 5 2.6 9.6 0.00 0.00 0.00 41 1012.3
20260503185556 56 5 4.3 10.4 0.00 0.00 0.00 41 1012.5
20260503185056 56 5 3.5 10.4 0.00 0.00 0.00 40 1012.6
20260503184546 56 5 1.7 10.4 0.00 0.00 0.00 44 1012.5
20260503184048 55 5 4.3 10.4 0.00 0.00 0.00 37 1012.7
20260503183538 55 5 3.5 10.4 0.00 0.00 0.00 40 1012.7
20260503183038 55 5 5.2 11.3 0.00 0.00 0.00 39 1012.8
20260503182528 56 5 5.2 13.0 0.00 0.00 0.00 44 1012.8
20260503182026 56 5 4.3 11.3 0.00 0.00 0.00 39 1012.9
20260503181518 56 5 3.5 10.4 0.00 0.00 0.00 41 1012.7
20260503181024 55 5 4.3 9.6 0.00 0.00 0.00 44 1012.7